Regional Weather Roundup
Issued by NWS Charleston, WV

Home | Current Version | Previous Version | Text Only | Print | Product List | Glossary Off
Versions: 1 2 3 4 5 6 7 8 9 10 11 12 13 14 15 16 17 18 19 20 21 22 23 24 25 26 27 28 29 30 31 32 33 34 35 36 37 38 39 40 41 42 43 44 45 46 47 48 49 50

000
ASUS41 KRLX 261010
RWRRLX
West Virginia Regional Weather Roundup
National Weather Service Charleston WV
500 AM EST WED NOV 26 2014

Note: "fair" indicates few or no clouds below 12,000 feet with no
significant weather and/or obstructions to visibility.

WVZ003-261100-
Northern Panhandle of West Virginia

CITY           SKY/WX    TMP DP  RH WIND       PRES   REMARKS
WHEELING       CLOUDY    30  24  78 NE7       30.09R
$$

WVZ009-261100-
Northwest West Virginia

CITY           SKY/WX    TMP DP  RH WIND       PRES   REMARKS
PARKERSBURG    CLOUDY    33  26  75 N6        30.09F
$$

WVZ006-261100-
Western West Virginia

CITY           SKY/WX    TMP DP  RH WIND       PRES   REMARKS
HUNTINGTON     CLOUDY    36  28  73 NE6       30.04F
$$

WVZ015-261100-
West Central West Virginia

CITY           SKY/WX    TMP DP  RH WIND       PRES   REMARKS
CHARLESTON     CLOUDY    38  29  70 N7        30.01F
$$

WVZ022-031-261100-
North Central West Virginia

CITY           SKY/WX    TMP DP  RH WIND       PRES   REMARKS
CLARKSBURG     CLOUDY    35  28  75 N10       30.03F
MORGANTOWN     CLOUDY    35  24  64 N6        30.08R
$$

WVZ025-035-042-045-261100-
Southern West Virginia

CITY           SKY/WX    TMP DP  RH WIND       PRES   REMARKS
BECKLEY        CLOUDY    37  31  78 E10       29.96F
LOGAN          CLOUDY    37  28  70 N5        29.97F
BLUEFIELD      LGT RAIN  38  33  82 E5        29.95F
LEWISBURG      LGT SNOW  35  32  89 NE3       29.99F
$$

WVZ047-261100-
Northern Mountains of West Virginia

CITY           SKY/WX    TMP DP  RH WIND       PRES   REMARKS
ELKINS         FLURRIES  34  30  85 VRB3      30.02S
$$

WVZ052-261100-
Eastern Panhandle of West Virginia

CITY           SKY/WX    TMP DP  RH WIND       PRES   REMARKS
MARTINSBURG    LGT RAIN  41  31  67 N10       30.08F
PETERSBURG     RAIN      37  29  72 NW6       30.11S
$$


USA.gov is the U.S. government's official web portal to all federal, state and local government web resources and services.